Satellite: SO-50
Catalog number: 27607
Epoch time:      12236.68071997
Element set:     845
Inclination:      064.5570 deg
RA of node:       089.5741 deg
Eccentricity:    0.0079082
Arg of perigee:   234.9822 deg
Mean anomaly:     124.3826 deg
Mean motion:   14.72466120 rev/day
Decay rate:        9.9e-07 rev/day^2
Epoch rev:           51990
Checksum:              334

Satellite: CO-55
Catalog number: 27844
Epoch time:      12235.60047698
Element set:     445
Inclination:      098.7044 deg
RA of node:       243.0183 deg
Eccentricity:    0.0010514
Arg of perigee:   035.2197 deg
Mean anomaly:     324.9669 deg
Mean motion:   14.21058373 rev/day
Decay rate:       1.51e-06 rev/day^2
Epoch rev:           47432
Checksum:              302

Satellite: CO-57
Catalog number: 27848
Epoch time:      12235.54540910
Element set:    0397
Inclination:      098.7125 deg
RA of node:       242.3272 deg
Eccentricity:    0.0010515
Arg of perigee:   040.9230 deg
Mean anomaly:     319.2734 deg
Mean motion:   14.20805728 rev/day
Decay rate:       1.34e-06 rev/day^2
Epoch rev:           47425
Checksum:              291

Satellite: AO-51
Catalog number: 28375
Epoch time:      12235.46320363
Element set:    0348
Inclination:      098.1542 deg
RA of node:       197.6807 deg
Eccentricity:    0.0082651
Arg of perigee:   199.9408 deg
Mean anomaly:     159.8540 deg
Mean motion:   14.40977094 rev/day
Decay rate:       1.18e-06 rev/day^2
Epoch rev:           42831
Checksum:              330

Satellite: CP3
Catalog number: 31129
Epoch time:      12235.59911891
Element set:     244
Inclination:      097.8815 deg
RA of node:       239.4730 deg
Eccentricity:    0.0099766
Arg of perigee:   276.8871 deg
Mean anomaly:     082.0990 deg
Mean motion:   14.53173235 rev/day
Decay rate:       4.13e-06 rev/day^2
Epoch rev:           28362
Checksum:              327

Satellite: CO-65
Catalog number: 32785
Epoch time:      12235.63439072
Element set:    0395
Inclination:      097.7917 deg
RA of node:       295.0985 deg
Eccentricity:    0.0014130
Arg of perigee:   199.7885 deg
Mean anomaly:     160.2765 deg
Mean motion:   14.83120564 rev/day
Decay rate:       4.74e-06 rev/day^2
Epoch rev:           23361
Checksum:              335

Satellite: PRISM
Catalog number: 33493
Epoch time:      12236.75256217
Element set:       2
Inclination:      098.1797 deg
RA of node:       018.9720 deg
Eccentricity:    0.0019946
Arg of perigee:   078.7813 deg
Mean anomaly:     281.5640 deg
Mean motion:   14.84180243 rev/day
Decay rate:      1.404e-05 rev/day^2
Epoch rev:           19377
Checksum:              309

Satellite: SOHLA-1
Catalog number: 33496
Epoch time:      12235.87943218
Element set:    0823
Inclination:      098.1083 deg
RA of node:       347.1944 deg
Eccentricity:    0.0006442
Arg of perigee:   179.4633 deg
Mean anomaly:     180.6572 deg
Mean motion:   14.70018448 rev/day
Decay rate:       1.33e-06 rev/day^2
Epoch rev:           19204
Checksum:              303

Satellite: SO-67
Catalog number: 35870
Epoch time:      12236.87574255
Element set:     260
Inclination:      097.2272 deg
RA of node:       270.2455 deg
Eccentricity:    0.0000982
Arg of perigee:   352.7223 deg
Mean anomaly:     119.4886 deg
Mean motion:   15.24295245 rev/day
Decay rate:      2.461e-05 rev/day^2
Epoch rev:           16292
Checksum:              316

Satellite: TISAT-1
Catalog number: 36799
Epoch time:      12236.72038508
Element set:     277
Inclination:      098.0590 deg
RA of node:       313.5441 deg
Eccentricity:    0.0013854
Arg of perigee:   317.9846 deg
Mean anomaly:     042.0307 deg
Mean motion:   14.82149561 rev/day
Decay rate:       8.63e-06 rev/day^2
Epoch rev:           11449
Checksum:              312

Satellite: STUDSAT
Catalog number: 36801
Epoch time:      12235.93219043
Element set:    0475
Inclination:      098.0706 deg
RA of node:       313.7784 deg
Eccentricity:    0.0011574
Arg of perigee:   304.4525 deg
Mean anomaly:     055.5587 deg
Mean motion:   14.84847153 rev/day
Decay rate:      2.612e-05 rev/day^2
Epoch rev:           11442
Checksum:              293

Satellite: FO-69
Catalog number: 37227
Epoch time:      12236.28802780
Element set:    0263
Inclination:      071.9704 deg
RA of node:       163.8824 deg
Eccentricity:    0.0017788
Arg of perigee:   199.8949 deg
Mean anomaly:     160.1525 deg
Mean motion:   14.77138948 rev/day
Decay rate:       2.09e-06 rev/day^2
Epoch rev:           04600
Checksum:              339

Satellite: FO-70
Catalog number: 37380
Epoch time:      12236.30491898
Element set:    0270
Inclination:      071.9726 deg
RA of node:       164.4901 deg
Eccentricity:    0.0018285
Arg of perigee:   196.7366 deg
Mean anomaly:     163.3194 deg
Mean motion:   14.76889470 rev/day
Decay rate:       2.10e-06 rev/day^2
Epoch rev:           04589
Checksum:              332

Satellite: ALMASAT-1
Catalog number: 38078
Epoch time:      12236.78449185
Element set:     502
Inclination:      069.4882 deg
RA of node:       163.9163 deg
Eccentricity:    0.0749453
Arg of perigee:   164.1982 deg
Mean anomaly:     198.3955 deg
Mean motion:   14.11220031 rev/day
Decay rate:     1.1231e-04 rev/day^2
Epoch rev:            2708
Checksum:              311

